CZ-2C DEB

Satellite information

Favourite Embed

Satellite Type and Status

DEBRISIN ORBIT

Key statistics

Satellite CZ-2C DEB at a glance.

Uptime

4276

Days in orbit

Revolutions

≈ 14.4

Per day

Orbit

SSO

Sun Synchronous Orbit

Inclination

98.6

Latest

Satellite identification and parameters

Extended collection of information and parameters for CZ-2C DEB.

Object identification

Identified? True

Debris? True

Object name: CZ-2C DEB

International designator: 2014-014F

Object number (NORAD): 39629

Object ID (CCSDS): 39629

Country: PEOPLES REPUBLIC OF CHINA (PRC)

Current information (Y/N): Y

RCS size: SMALL

Orbital parameters

Period: 100.206 minutes

Inclination: 98.6032 deg

SMA: 7146.424 km

Apoapsis: 871.548 km

Periapsis: 665.03 km

RAAN: 306.2422 deg

Eccentricy: 0.01444905

Argument of periapsis: 247.6229 deg

Mean anomaly: 110.9593 deg

Mean motion: 14.37042358 rev/day

Mean motion (dot): 0.00004909 rev/day2

B* drag term: 0.0014815595 1/REarth

Two-line elements (TLE)

Creation date: Dec. 12, 2025, 10:14 a.m.

Reference frame: TEME

Reference center: EARTH

Epoch: Dec. 12, 2025, 4:10 a.m. UTC

TLE line 0: 0 CZ-2C DEB

TLE line 1: 1 39629U 14014F 25346.17398457 .00004909 00000-0 14816-2 0 9997

TLE line 2: 2 39629 98.6032 306.2422 0144491 247.6229 110.9593 14.37042358608787

Live tracking on map

Real-time ground track for satellite CZ-2C DEB.

In-orbit conjunctions

A list of the most updated potential collisions computed for object CZ-2C DEB.

Target Orbit TCA Probability of collision Miss distance Type
YAOGAN 2 DEB SSO 2025-05-15 11:12:25 0.0001574055 244.0 (m) DEBRIS
COSMOS 2322 LEO 2025-01-06 12:27:55 0.000540573 771.0 (m) PAYLOAD
FENGYUN 1C DEB SSO 2024-11-10 07:22:50 0.001216302 197.0 (m) DEBRIS

Associated space launch

CZ-2C DEB was lifted into orbit during the mission ‘Long March 2C | Shijian 11-06’, on board a Long March 2 space rocket.

The launch took place on March 31, 2014, 2:46 a.m. from Launch Area 94 (SLS-2 / 603).

For more information about the launch, click the button.

Launch to space Long March 2C | Shijian 11-06
Long March 2C | Shijian 11-06

Agency: N/A

Status: Launch Successful

Launch date: March 31, 2014, 2:46 a.m. UTC

Rocket: Long March 2

Launch pad: Launch Area 94 (SLS-2 / 603)

Location: Jiuquan Satellite Launch Center, People's Republic of China

...

Latest news about this satellite

There are no fresh news available about this satellite. Check back as we update our databases every day.


Newsletter sign-up

Weekly statistics, charts and insights to help you stay on top of the space industry.